Sandberg, CA

5:11 PM PDT on April 27, 2017 (GMT -0700)
Sandberg

Weather History for KSDB - November, 2013

Change the Weather History Date:

Tuesday, November 19, 2013

  Actual Average Record
Temperature  
Mean Temperature 48 °F 48 °F  
Max Temperature 54 °F 54 °F 75 °F (1995)
Min Temperature 42 °F 41 °F 25 °F (1994)
Degree Days  
Heating Degree Days 17 17  
Month to date heating degree days 146 266  
Since 1 July heating degree days 363 567  
Cooling Degree Days 0 0  
Month to date cooling degree days 4 0  
Year to date cooling degree days 1565 996  
Moisture  
Dew Point 36 °F    
Average Humidity 62    
Maximum Humidity 82    
Minimum Humidity 42    
Precipitation  
Precipitation 0.00 in 0.02 in 1.88 in (1967)
Month to date precipitation 0.00 0.44  
Year to date precipitation 3.22 9.74  
Since 1 July precipitation 0.31  
Sea Level Pressure  
Sea Level Pressure 29.97 in    
Wind  
Wind Speed 13 mph (NW)    
Max Wind Speed 30 mph    
Max Gust Speed 39 mph    
Visibility 10 miles    
Events      
T = Trace of Precipitation, MM = Missing Value Source: NWS Daily Summary

Daily Weather History Graph

Daily Weather History Graph

Search for Another Location

Airport or City:

Trip Planner

Search our weather history database for the weather conditions in past years. The results will help you decide how hot, cold, wet, or windy it might be!

Date:

Astronomy

Nov. 19, 2013 Rise Set
Actual Time 6:33 AM PST 4:47 PM PST
Civil Twilight 6:06 AM PST 5:14 PM PST
Nautical Twilight 5:35 AM PST 5:45 PM PST
Astronomical Twilight 5:05 AM PST 6:15 PM PST
Moon 6:43 PM PST (11/19) 8:15 AM PST (11/19)
Length of Visible Light 11h 08m
Length of Day
10h 14m
Waning Gibbous, 95% of the Moon is Illuminated
Nov 19
Waning Gibbous
Nov 25
Last Quarter
Dec 2
New
Dec 9
First Quarter
Dec 17
Full

Hourly Weather History & Observations

Time (PST) Temp. Windchill Dew Point Humidity Pressure Visibility Wind Dir Wind Speed Gust Speed Precip Events Conditions
12:48 AM 45.0 °F 42.6 °F 35.1 °F 68% 30.00 in 10.0 mi West 4.6 mph - N/A   Clear
1:48 AM 45.0 °F 38.9 °F 36.0 °F 71% 29.98 in 10.0 mi WNW 12.7 mph - N/A   Clear
2:48 AM 44.1 °F 37.1 °F 36.0 °F 73% 29.99 in 10.0 mi NNW 15.0 mph - N/A   Clear
3:48 AM 43.0 °F 35.7 °F 37.0 °F 80% 29.99 in 9.0 mi NNW 15.0 mph 25.3 mph N/A   Clear
4:48 AM 44.1 °F 36.8 °F 36.0 °F 73% 29.99 in 10.0 mi NW 16.1 mph 21.9 mph N/A   Clear
5:48 AM 43.0 °F 37.7 °F 35.1 °F 74% 30.00 in 10.0 mi West 9.2 mph 19.6 mph N/A   Clear
6:48 AM 45.0 °F 39.7 °F 36.0 °F 71% 30.01 in 10.0 mi WNW 10.4 mph - N/A   Clear
7:48 AM 44.1 °F 36.5 °F 36.0 °F 73% 30.02 in 8.0 mi NNW 17.3 mph - N/A   Clear
8:48 AM 45.0 °F 39.3 °F 37.0 °F 74% 30.02 in 9.0 mi North 11.5 mph 23.0 mph N/A   Clear
9:48 AM 48.9 °F - 37.0 °F 64% 30.01 in 10.0 mi NNW 9.2 mph - N/A   Clear
10:48 AM 50.0 °F - 37.9 °F 63% 30.01 in 10.0 mi North 13.8 mph 20.7 mph N/A   Clear
11:48 AM 50.0 °F - 37.9 °F 63% 29.99 in 10.0 mi NNW 24.2 mph - N/A   Clear
12:48 PM 53.1 °F - 37.9 °F 57% 29.95 in 10.0 mi North 24.2 mph - N/A   Clear
1:48 PM 54.0 °F - 37.9 °F 55% 29.94 in 10.0 mi North 19.6 mph - N/A   Clear
2:48 PM 54.0 °F - 37.0 °F 53% 29.93 in 10.0 mi North 11.5 mph - N/A   Clear
3:48 PM 50.0 °F - 37.9 °F 63% 29.95 in 10.0 mi North 18.4 mph 26.5 mph N/A   Clear
4:48 PM 46.9 °F - 37.0 °F 68% 29.95 in 10.0 mi North 8.1 mph 16.1 mph N/A   Clear
5:48 PM 48.0 °F - 36.0 °F 63% 29.94 in 10.0 mi NNW 21.9 mph 28.8 mph N/A   Clear
6:48 PM 48.9 °F - 33.1 °F 54% 29.93 in 10.0 mi NNW 8.1 mph - N/A   Clear
7:48 PM 50.0 °F - 28.9 °F 44% 29.94 in 10.0 mi NNW 12.7 mph - N/A   Scattered Clouds
8:48 PM 48.9 °F - 33.1 °F 54% 29.95 in 10.0 mi NW 5.8 mph - N/A   Clear
9:48 PM 48.9 °F - 32.0 °F 52% 29.94 in 10.0 mi Variable 4.6 mph - N/A   Mostly Cloudy
10:48 PM 45.0 °F 41.8 °F 36.0 °F 71% 29.94 in 10.0 mi WSW 5.8 mph - N/A   Clear
11:48 PM 46.9 °F - 34.0 °F 61% 29.91 in 10.0 mi West 8.1 mph - N/A   Clear